N1IJV-10 Weather Reports


time (UTC)temp
F
wind
direction
speed
knots
gust
knots
rain 1hr
in
rain 24hr
in
rain mn
in
humidity
%
barometer
mb
20260831165151 79 237 0.9 6.1 0.00 0.17 0.17 78 1011.5
20260831164646 79 230 3.5 4.3 0.00 0.17 0.17 77 1011.6
20260831164143 79 232 1.7 2.6 0.00 0.17 0.17 79 1011.6
20260831163637 78 320 0.9 2.6 0.00 0.17 0.17 79 1011.7
20260831163133 78 233 2.6 4.3 0.00 0.17 0.17 81 1011.7
20260831162632 77 234 0.9 2.6 0.00 0.17 0.17 82 1012.1
20260831162130 77 316 0.9 1.7 0.00 0.17 0.17 84 1011.8
20260831161626 76 240 0.9 2.6 0.00 0.17 0.17 83 1011.7
20260831161122 76 324 1.7 2.6 0.00 0.17 0.17 85 1011.8
20260831160621 75 242 1.7 1.7 0.00 0.17 0.17 87 1012.1
20260831160116 74 236 2.6 4.3 0.00 0.17 0.17 88 1011.7
20260831155611 74 233 3.5 5.2 0.00 0.17 0.17 89 1011.9
20260831155107 73 322 2.6 4.3 0.00 0.17 0.17 91 1011.9
20260831154603 72 273 0.9 4.3 0.00 0.17 0.17 93 1012.1
20260831154102 71 242 0.9 1.7 0.00 0.17 0.17 95 1011.8
20260831153602 71 308 0.9 1.7 0.00 0.17 0.17 96 1012.2
20260831153059 71 259 0.9 1.7 0.00 0.17 0.17 96 1011.9
20260831152554 71 312 1.7 2.6 0.00 0.17 0.17 97 1012.3
20260831152049 71 303 0.0 0.0 0.00 0.17 0.17 98 1012.2
20260831151549 70 247 0.9 1.7 0.00 0.17 0.17 98 1012.1
20260831151049 70 298 0.0 0.9 0.00 0.17 0.17 98 1012.2
20260831150538 70 313 0.0 0.9 0.05 0.17 0.17 98 1012.3
20260831150035 70 318 0.9 0.9 0.00 0.16 0.16 98 1012.5
20260831145529 70 315 0.0 0.9 0.00 0.16 0.16 98 1012.2
20260831145025 70 310 0.0 0.0 0.00 0.16 0.16 98 1012.3
20260831144520 70 272 0.0 0.9 0.00 0.16 0.16 98 1012.3
20260831144015 70 305 0.0 0.9 0.00 0.16 0.16 98 1012.2
20260831143510 70 313 0.9 1.7 0.00 0.16 0.16 98 1012.1
20260831143005 70 321 0.9 0.9 0.14 0.16 0.16 98 1011.8
20260831142456 70 318 0.0 0.9 0.19 0.16 0.16 97 1011.7
20260831141950 70 237 1.7 1.7 0.05 0.14 0.14 98 1012.1
20260831141444 69 326 1.7 2.6 0.00 0.13 0.13 98 1012.3
20260831140939 69 267 0.0 0.9 0.00 0.13 0.13 98 1012.1
20260831140433 69 312 0.0 1.7 0.00 0.13 0.13 98 1012.2
20260831135932 69 310 0.0 1.7 0.00 0.13 0.13 99 1012.1
20260831135431 69 322 1.7 1.7 0.00 0.13 0.13 99 1012.2
20260831134926 69 320 0.9 1.7 0.00 0.13 0.13 99 1012.2
20260831134423 69 312 0.0 0.9 0.00 0.13 0.13 99 1012.2
20260831133923 69 315 0.0 0.0 0.07 0.13 0.13 99 1012.5
20260831133418 69 316 0.0 0.0 0.07 0.13 0.13 98 1012.3
20260831132918 69 312 0.0 0.9 0.00 0.12 0.12 98 1012.2
20260831132414 69 308 0.0 0.0 0.00 0.12 0.12 98 1012.4
20260831131913 69 247 0.9 0.9 0.00 0.12 0.12 97 1012.3
20260831131408 69 309 0.0 0.9 0.00 0.12 0.12 97 1012.1
20260831130904 69 310 0.0 0.9 0.00 0.12 0.12 97 1012.2
20260831130359 69 254 0.9 1.7 0.17 0.12 0.12 96 1012.1
20260831125858 69 313 0.9 0.9 0.40 0.12 0.12 97 1011.9
20260831125354 69 306 0.0 0.9 0.24 0.08 0.08 96 1012.5
20260831124848 70 306 0.0 0.9 0.07 0.05 0.05 95 1012.5
20260831124344 70 306 0.0 0.0 0.05 0.04 0.04 94 1012.2
20260831123839 71 309 0.0 0.0 0.19 0.04 0.04 92 1012.8
20260831123338 71 310 0.0 0.9 0.19 0.03 0.03 90 1012.6
20260831122833 72 310 0.9 0.9 0.00 0.00 0.00 87 1012.5
20260831122329 72 307 0.0 0.9 0.00 0.00 0.00 87 1012.3
20260831121829 73 248 0.0 0.9 0.00 0.00 0.00 85 1012.1
20260831121325 73 246 0.0 0.9 0.00 0.00 0.00 82 1011.5
20260831120820 73 247 0.0 0.9 0.00 0.00 0.00 82 1011.4
20260831120314 73 244 0.9 1.7 0.00 0.00 0.00 82 1011.4
20260831115810 73 248 0.0 1.7 0.00 0.00 0.00 82 1011.1
20260831115306 73 241 1.7 1.7 0.00 0.00 0.00 82 1011.1
20260831114804 73 242 0.9 4.3 0.00 0.00 0.00 83 1010.9
20260831114259 72 242 0.9 5.2 0.00 0.00 0.00 83 1011.0
20260831113754 73 246 1.7 4.3 0.00 0.00 0.00 83 1011.0
20260831113248 73 245 1.7 2.6 0.00 0.00 0.00 83 1010.9
20260831112748 73 242 1.7 2.6 0.00 0.00 0.00 82 1011.0
20260831112243 73 243 0.9 1.7 0.00 0.00 0.00 82 1010.8
20260831111739 73 243 2.6 2.6 0.00 0.00 0.00 81 1010.8
20260831111235 73 257 1.7 5.2 0.00 0.00 0.00 81 1010.5
20260831110731 73 265 0.9 1.7 0.00 0.00 0.00 81 1010.6
20260831110226 73 263 0.9 1.7 0.00 0.00 0.00 81 1010.8
20260831105724 73 276 0.9 0.9 0.00 0.00 0.00 81 1010.7
20260831105220 73 266 1.7 2.6 0.00 0.00 0.00 80 1010.8
20260831104715 73 241 0.9 2.6 0.00 0.00 0.00 80 1010.8
20260831104211 73 249 2.6 4.3 0.00 0.00 0.00 80 1011.0
20260831103711 73 272 1.7 2.6 0.00 0.00 0.00 80 1011.0
20260831103207 73 257 1.7 1.7 0.00 0.00 0.00 81 1010.8
20260831102706 73 269 0.0 1.7 0.00 0.00 0.00 81 1011.0
20260831102201 73 259 0.9 0.9 0.00 0.00 0.00 81 1011.1
20260831101656 73 268 1.7 1.7 0.00 0.00 0.00 80 1011.0
20260831101152 74 264 0.9 2.6 0.00 0.00 0.00 79 1010.9
20260831100648 74 249 1.7 2.6 0.00 0.00 0.00 79 1010.9
20260831100144 74 259 0.9 2.6 0.00 0.00 0.00 79 1010.8
20260831095642 74 255 0.9 2.6 0.00 0.00 0.00 79 1010.8
20260831095137 74 276 0.9 1.7 0.00 0.00 0.00 80 1010.7
20260831094632 74 260 0.9 1.7 0.00 0.00 0.00 80 1010.7
20260831094129 74 264 0.9 1.7 0.00 0.00 0.00 80 1010.6
20260831093624 74 245 2.6 4.3 0.00 0.00 0.00 80 1010.7
20260831093120 74 276 0.0 2.6 0.00 0.00 0.00 80 1010.8
20260831092616 74 285 0.0 0.9 0.00 0.00 0.00 80 1011.0
20260831092111 74 277 0.0 0.9 0.00 0.00 0.00 80 1011.2
20260831091611 74 280 0.9 4.3 0.00 0.00 0.00 80 1011.0
20260831091106 74 260 0.9 1.7 0.00 0.00 0.00 80 1010.8
20260831090602 74 270 1.7 2.6 0.00 0.00 0.00 80 1011.0
20260831090058 74 282 0.0 0.9 0.00 0.00 0.00 80 1010.8
20260831085553 74 268 0.9 1.7 0.00 0.00 0.00 81 1010.9
20260831085048 74 282 0.9 0.9 0.00 0.00 0.00 82 1011.0
20260831084544 74 270 0.9 1.7 0.00 0.00 0.00 82 1011.2
20260831084040 74 282 0.0 0.9 0.00 0.00 0.00 82 1011.0
20260831083536 74 258 0.0 1.7 0.00 0.00 0.00 82 1011.2
20260831083030 74 248 0.0 1.7 0.00 0.00 0.00 83 1011.0
20260831082530 74 249 0.9 1.7 0.00 0.00 0.00 82 1011.1
20260831082025 74 250 0.9 0.9 0.00 0.00 0.00 83 1010.9
20260831081521 74 247 0.9 0.9 0.00 0.00 0.00 82 1011.0
20260831081016 74 247 0.0 1.7 0.00 0.00 0.00 82 1010.9
20260831080510 74 250 0.9 2.6 0.00 0.00 0.00 82 1010.8
20260831080007 74 240 1.7 2.6 0.00 0.00 0.00 82 1010.9
20260831075501 74 242 0.0 1.7 0.00 0.00 0.00 83 1011.0
20260831074957 74 242 0.9 1.7 0.00 0.00 0.00 82 1011.0
20260831074451 75 248 2.6 4.3 0.00 0.00 0.00 82 1010.9
20260831073950 75 241 1.7 2.6 0.00 0.00 0.00 81 1011.0
20260831073445 75 241 1.7 4.3 0.00 0.00 0.00 81 1010.9
20260831072944 75 244 0.9 2.6 0.00 0.00 0.00 81 1011.0
20260831072440 75 243 0.9 0.9 0.00 0.00 0.00 81 1010.9
20260831071937 75 242 0.9 1.7 0.00 0.00 0.00 81 1011.2
20260831071435 75 242 1.7 1.7 0.00 0.00 0.00 82 1011.2
20260831070930 75 244 0.0 0.9 0.00 0.00 0.00 82 1011.1
20260831070430 75 285 0.9 1.7 0.00 0.00 0.00 82 1011.2
20260831065929 75 244 0.0 2.6 0.00 0.00 0.00 81 1011.1
20260831065427 75 263 0.9 2.6 0.00 0.00 0.00 82 1011.0
20260831064922 75 244 0.9 1.7 0.00 0.00 0.00 83 1011.2
20260831064417 75 242 0.9 2.6 0.00 0.00 0.00 83 1011.2
20260831063913 75 244 0.9 1.7 0.00 0.00 0.00 83 1011.4
20260831063408 75 239 2.6 2.6 0.00 0.00 0.00 84 1011.2
20260831062902 75 245 0.9 1.7 0.00 0.00 0.00 85 1011.2
20260831062358 75 245 0.9 1.7 0.00 0.00 0.00 85 1011.0
20260831061856 75 245 0.9 1.7 0.00 0.00 0.00 85 1010.9
20260831061355 75 244 0.9 2.6 0.00 0.00 0.00 85 1011.0
20260831060851 75 251 0.9 2.6 0.00 0.00 0.00 85 1011.1
20260831060346 75 240 0.9 5.2 0.00 0.00 0.00 84 1011.2
20260831055845 75 241 1.7 2.6 0.00 0.00 0.00 85 1011.1
20260831055341 75 244 0.9 1.7 0.00 0.00 0.00 85 1011.1
20260831054836 75 247 1.7 1.7 0.00 0.00 0.00 85 1011.1
20260831054331 75 242 0.9 2.6 0.00 0.00 0.00 85 1010.9
20260831053830 75 240 1.7 1.7 0.00 0.00 0.00 86 1011.0
20260831053329 75 239 2.6 2.6 0.00 0.00 0.00 87 1010.9
20260831052824 75 241 0.9 5.2 0.00 0.00 0.00 86 1011.0
20260831052323 75 227 3.5 5.2 0.00 0.00 0.00 87 1010.8
20260831051821 75 234 1.7 7.0 0.00 0.00 0.00 87 1010.9
20260831051320 75 260 2.6 5.2 0.00 0.00 0.00 88 1010.9
20260831050815 75 250 0.9 5.2 0.00 0.00 0.00 89 1010.9
20260831050314 75 280 1.7 2.6 0.00 0.00 0.00 89 1011.0
20260831045808 75 249 0.9 2.6 0.00 0.21 0.21 90 1011.0
20260831045306 75 263 0.9 2.6 0.00 0.21 0.21 91 1011.0
20260831044758 75 291 0.9 1.7 0.00 0.21 0.21 92 1011.2
20260831044252 74 228 2.6 2.6 0.00 0.21 0.21 93 1011.0
20260831043749 74 260 0.9 0.9 0.00 0.21 0.21 94 1011.2
20260831043243 74 293 0.9 4.3 0.00 0.21 0.21 94 1011.3
20260831042743 74 271 2.6 2.6 0.00 0.21 0.21 95 1011.3
20260831042238 74 294 0.9 2.6 0.00 0.21 0.21 96 1011.4
20260831041733 74 300 0.9 1.7 0.00 0.21 0.21 96 1011.5
20260831041232 74 301 0.0 0.9 0.00 0.21 0.21 96 1011.8
20260831040726 74 301 0.9 1.7 0.00 0.21 0.21 97 1011.7
20260831040226 74 306 0.9 1.7 0.00 0.21 0.21 97 1011.8
20260831035719 74 300 0.9 0.9 0.00 0.21 0.21 98 1011.6
20260831035219 73 292 0.9 0.9 0.00 0.21 0.21 98 1011.8
20260831034718 73 301 0.0 0.9 0.00 0.21 0.21 99 1011.7
20260831034214 73 300 0.0 0.9 0.00 0.21 0.21 99 1012.1
20260831033709 73 305 0.0 0.9 0.00 0.21 0.21 99 1011.9
20260831033208 73 308 0.0 1.7 0.00 0.21 0.21 99 1012.3
20260831032703 73 309 0.0 0.9 0.00 0.21 0.21 99 1012.3
20260831032154 73 305 0.0 0.0 0.00 0.21 0.21 99 1012.3
20260831031653 73 312 0.0 0.0 0.00 0.21 0.21 99 1012.5
20260831031147 73 313 0.0 0.0 0.00 0.21 0.21 99 1012.7
20260831030646 73 310 0.9 0.9 0.00 0.21 0.21 99 1012.6
20260831030145 73 309 0.0 0.0 0.00 0.21 0.21 99 1012.8
20260831025643 73 313 0.0 0.9 0.00 0.21 0.21 99 1012.5
20260831025138 74 313 0.0 0.0 0.07 0.21 0.21 99 1012.6
20260831024635 74 314 0.0 0.9 0.07 0.21 0.21 98 1012.8
20260831024133 74 313 0.0 0.9 0.05 0.20 0.20 97 1012.8
20260831023632 74 303 0.9 1.7 0.05 0.20 0.20 97 1012.5
20260831023126 74 307 0.0 0.9 0.00 0.19 0.19 98 1012.5
20260831022621 74 304 0.0 0.9 0.00 0.19 0.19 98 1012.7
20260831022116 74 311 0.0 0.9 0.00 0.19 0.19 98 1012.6
20260831021615 73 300 0.0 0.9 0.00 0.19 0.19 98 1012.6
20260831021111 73 310 0.0 0.0 0.00 0.19 0.19 98 1012.8
20260831020607 73 311 0.0 0.0 0.00 0.19 0.19 98 1012.7
20260831015557 74 312 0.0 0.0 0.00 0.19 0.19 97 1013.0
20260831015051 74 306 0.9 0.9 0.00 0.19 0.19 97 1012.7
20260831014546 74 310 0.0 0.9 0.00 0.19 0.19 97 1012.6
20260831014042 73 309 0.0 0.9 0.00 0.19 0.19 98 1012.4
20260831013537 73 307 0.0 0.0 0.00 0.19 0.19 98 1012.3
20260831013032 73 305 0.0 0.0 0.00 0.19 0.19 98 1012.6
20260831012527 73 311 0.0 0.0 0.00 0.19 0.19 98 1012.4
20260831012026 73 311 0.0 0.0 0.00 0.19 0.19 98 1012.4
20260831011521 73 310 0.0 0.0 0.00 0.19 0.19 98 1012.3
20260831011016 73 308 0.0 0.0 0.00 0.19 0.19 98 1012.2
20260831010511 73 310 0.0 0.0 0.00 0.19 0.19 98 1012.2
20260831010008 73 313 0.0 0.0 0.00 0.19 0.19 97 1012.3
20260831005502 74 310 0.0 0.0 0.00 0.19 0.19 97 1012.4
20260831005001 74 309 0.0 0.0 0.00 0.19 0.19 97 1011.9
20260831004458 74 310 0.0 0.0 0.00 0.19 0.19 96 1011.9
20260831003954 74 315 0.0 0.0 0.00 0.19 0.19 96 1011.8
20260831003450 74 307 0.0 0.9 0.00 0.19 0.19 96 1011.8
20260831002949 74 316 0.0 0.0 0.00 0.19 0.19 96 1011.8
20260831002448 74 318 0.0 0.0 0.00 0.19 0.19 96 1012.1
20260831001944 74 314 0.0 0.0 0.00 0.19 0.19 96 1011.7
20260831001439 74 315 0.0 0.0 0.00 0.19 0.19 96 1012.1
20260831000936 74 313 0.0 0.0 0.00 0.19 0.19 96 1012.1
20260831000432 74 317 0.0 0.0 0.00 0.19 0.19 96 1012.2
20260830235929 74 313 0.0 0.0 0.00 0.19 0.19 95 1012.4
20260830235425 74 311 0.0 0.0 0.00 0.19 0.19 95 1012.7
20260830234920 74 315 0.0 0.0 0.00 0.19 0.19 95 1012.4
20260830234415 74 316 0.0 0.9 0.00 0.19 0.19 95 1012.3
20260830233911 74 314 0.0 0.9 0.07 0.19 0.19 94 1012.4
20260830233406 74 317 0.0 1.7 0.00 0.18 0.18 94 1012.4
20260830232902 74 313 0.0 0.9 0.00 0.18 0.18 94 1012.8
20260830232357 74 310 0.0 0.9 0.00 0.18 0.18 94 1012.6
20260830231854 74 305 0.9 1.7 0.00 0.18 0.18 94 1012.5
20260830231349 74 303 0.9 1.7 0.00 0.18 0.18 94 1012.5
20260830230848 75 253 0.0 0.9 0.00 0.18 0.18 94 1012.2
20260830230344 75 246 0.9 0.9 0.00 0.18 0.18 94 1012.5
20260830225843 75 302 0.0 0.0 0.00 0.18 0.18 92 1012.6
20260830225338 75 302 0.0 0.0 0.00 0.18 0.18 91 1012.6
20260830224832 75 299 0.0 0.9 0.00 0.18 0.18 91 1012.8
20260830224327 76 248 0.9 1.7 0.05 0.18 0.18 90 1012.9
20260830223824 75 253 1.7 1.7 0.05 0.18 0.18 88 1013.1
20260830223320 75 250 1.7 2.6 0.00 0.17 0.17 87 1012.9
20260830222813 75 259 0.0 1.7 0.00 0.17 0.17 88 1013.0
20260830222309 75 255 1.7 1.7 0.00 0.17 0.17 88 1013.0
20260830221804 75 257 0.9 1.7 0.00 0.17 0.17 90 1012.8
20260830221301 75 262 1.7 1.7 0.00 0.17 0.17 90 1012.9
20260830220756 75 260 0.0 0.9 0.00 0.17 0.17 89 1013.0
20260830220255 75 301 3.5 5.2 0.00 0.17 0.17 90 1012.9
20260830215753 75 255 0.0 0.9 0.00 0.17 0.17 93 1012.8
20260830215248 75 265 0.0 0.0 0.00 0.17 0.17 91 1012.3
20260830214743 75 304 0.0 0.0 0.07 0.17 0.17 92 1012.6
20260830214243 75 261 0.0 0.0 0.00 0.16 0.16 91 1012.5
20260830213742 75 261 0.0 0.0 0.00 0.16 0.16 90 1012.6
20260830213238 75 259 0.0 0.0 0.00 0.16 0.16 90 1012.8
20260830212734 75 257 0.9 0.9 0.00 0.16 0.16 90 1012.7
20260830212229 75 256 0.0 0.9 0.00 0.16 0.16 91 1012.9
20260830211729 75 249 1.7 1.7 0.00 0.16 0.16 90 1012.7
20260830211228 75 260 0.9 0.9 0.00 0.16 0.16 91 1012.9
20260830210724 76 253 0.9 0.9 0.00 0.16 0.16 90 1012.9
20260830210223 76 254 0.0 1.7 0.00 0.16 0.16 89 1013.1
20260830205720 76 255 0.0 0.9 0.00 0.16 0.16 89 1013.1
20260830205216 76 252 0.9 1.7 0.00 0.16 0.16 88 1013.2
20260830204710 75 252 0.9 1.7 0.00 0.16 0.16 89 1012.9
20260830204209 75 251 0.9 1.7 0.00 0.16 0.16 89 1012.7
20260830203706 75 256 0.0 0.9 0.00 0.16 0.16 90 1012.9
20260830203201 75 253 0.9 1.7 0.00 0.16 0.16 91 1012.9
20260830202701 75 256 0.9 1.7 0.00 0.16 0.16 90 1013.0
20260830202156 75 250 0.9 1.7 0.00 0.16 0.16 90 1012.7
20260830201655 74 247 0.9 0.9 0.00 0.16 0.16 90 1013.0
20260830201150 74 235 2.6 2.6 0.00 0.16 0.16 89 1012.7
20260830200646 75 241 0.9 1.7 0.00 0.16 0.16 87 1012.9
20260830200145 74 248 2.6 2.6 0.05 0.16 0.16 87 1013.1
20260830195641 74 252 1.7 2.6 0.17 0.16 0.16 88 1013.1
20260830195139 75 259 0.9 2.6 0.12 0.15 0.15 89 1013.4
20260830194637 75 243 0.9 1.7 0.07 0.13 0.13 89 1013.4
20260830194132 77 237 0.9 1.7 0.07 0.12 0.12 86 1013.3
20260830193627 77 244 0.9 1.7 0.07 0.12 0.12 84 1013.3
20260830193127 78 245 0.9 2.6 0.00 0.11 0.11 81 1013.0
20260830192623 77 248 2.6 2.6 0.00 0.11 0.11 79 1013.1
20260830192117 77 248 0.9 0.9 0.00 0.11 0.11 82 1012.9
20260830191613 77 249 0.0 0.9 0.00 0.11 0.11 82 1013.1
20260830191108 78 248 0.0 0.9 0.00 0.11 0.11 82 1012.9
20260830190604 78 259 0.9 1.7 0.00 0.11 0.11 80 1012.7
20260830190058 79 236 0.9 1.7 0.00 0.11 0.11 79 1012.9
20260830185551 79 220 1.7 1.7 0.00 0.11 0.11 76 1012.6
20260830185048 80 220 0.9 4.3 0.00 0.11 0.11 74 1012.5
20260830184546 80 261 1.7 5.2 0.00 0.11 0.11 73 1012.2
20260830184040 80 256 1.7 4.3 0.00 0.11 0.11 74 1012.2
20260830183535 81 350 2.6 7.0 0.00 0.11 0.11 74 1012.1
20260830183032 80 219 1.7 7.0 0.00 0.11 0.11 74 1012.1
20260830182527 80 245 2.6 6.1 0.00 0.11 0.11 75 1011.9
20260830182023 81 221 1.7 2.6 0.00 0.11 0.11 73 1011.7
20260830181519 82 218 1.7 5.2 0.00 0.11 0.11 71 1011.5
20260830181017 83 218 3.5 7.0 0.00 0.11 0.11 70 1011.5
20260830180512 83 259 2.6 5.2 0.00 0.11 0.11 71 1011.3
20260830180011 82 252 2.6 5.2 0.00 0.11 0.11 71 1011.6
20260830175505 82 233 4.3 5.2 0.00 0.11 0.11 71 1011.7
20260830175000 81 323 3.5 5.2 0.00 0.11 0.11 72 1011.8
20260830174455 80 250 4.3 6.1 0.00 0.11 0.11 73 1011.7
20260830173950 80 225 1.7 5.2 0.00 0.11 0.11 74 1011.8
20260830173446 80 229 0.9 2.6 0.00 0.11 0.11 74 1012.3
20260830172941 80 230 2.6 5.2 0.00 0.11 0.11 73 1012.1
20260830172438 80 231 0.9 4.3 0.00 0.11 0.11 72 1011.9
20260830171933 80 224 1.7 6.1 0.00 0.11 0.11 72 1012.2
20260830171429 79 228 1.7 6.1 0.00 0.11 0.11 75 1012.3
20260830170928 79 264 5.2 7.0 0.00 0.11 0.11 73 1012.3
20260830170428 78 230 3.5 6.1 0.00 0.11 0.11 76 1012.4
20260830165926 78 268 3.5 7.0 0.00 0.11 0.11 75 1012.4
20260830165423 78 204 3.5 5.2 0.00 0.11 0.11 76 1012.2